Location: Ripley
(48.3812°N, 115.4473°W)
Time: 15:02:12
(UTC+00:00)

CAS-6 - Visible Passes

Search period start: 26 June 2022 00:00
Search period end: 06 July 2022 00:00
Orbit: 613 x 635 km, 97.9° (Epoch: 26 June)

Date Brightness Start Highest point End Pass type
(mag) Time Alt. Az. Time Alt. Az. Time Alt. Az.
26 Jun ? 05:30:36 18° SE 05:33:41 57° ENE 05:37:59 10° N visible
26 Jun ? 07:07:50 12° SW 07:10:13 17° W 07:13:05 10° NW visible
27 Jun ? 05:49:14 22° SSE 05:52:05 87° E 05:56:28 10° NNW visible
27 Jun ? 07:27:37 10° WSW 07:28:53 11° W 07:30:10 10° WNW visible
28 Jun ? 04:31:56 10° ESE 04:34:47 17° ENE 04:37:38 10° NNE visible
28 Jun ? 06:07:53 23° S 06:10:32 62° WSW 06:14:52 10° NNW visible
29 Jun ? 04:49:31 10° ESE 04:53:02 24° ENE 04:56:33 10° N visible
29 Jun ? 06:26:32 21° SSW 06:29:02 40° W 06:33:09 10° NNW visible
30 Jun ? 05:07:56 13° SE 05:11:20 35° ENE 05:15:17 10° N visible
30 Jun ? 06:45:11 17° SW 06:47:34 27° W 06:51:17 10° NW visible
01 Jul ? 05:26:35 18° SE 05:29:40 52° ENE 05:33:54 10° N visible
01 Jul ? 07:03:50 13° SW 07:06:09 18° W 07:09:12 10° NW visible
02 Jul ? 05:45:14 22° SSE 05:48:03 79° ENE 05:52:25 10° NNW visible
02 Jul ? 07:23:03 10° WSW 07:24:48 12° W 07:26:33 10° WNW visible
03 Jul ? 04:28:09 10° E 04:30:48 16° ENE 04:33:25 10° NNE visible
03 Jul ? 06:03:53 23° S 06:06:29 68° WSW 06:10:50 10° NNW visible
04 Jul ? 04:45:38 10° ESE 04:49:01 23° ENE 04:52:24 10° NNE visible
04 Jul ? 06:22:32 22° SSW 06:24:58 44° W 06:29:08 10° NNW visible
05 Jul ? 05:03:56 13° SE 05:07:18 32° ENE 05:11:10 10° N visible
05 Jul ? 06:41:10 18° SW 06:43:29 29° W 06:47:18 10° NW visible
